PAGEOS 1 DEB, 2256

Orbit data source: Space-Track

PAGEOS 1 DEB, 2256 is space debris in LEO originally from a launch on Fri, 24 Jun 1966 UTC launched from the Air Force Western Test Range (AFWTR). Debris objects in space refer to the collection of defunct objects orbiting the Earth. Examples of debris include non-operational satellites, rocket bodies, and fragments generated from explosions, collisions, or faulty payload assembly.

Loading next visibility...
Identifier
2256, 1966-056C
Orbit
LEO
Country
Flag of USUS
Related business
Manufacturer
Goodyear
Mission
Spacecraft
Bus & Motor
ECHO CANISTER, Unknown motor
Mass
9 kg wet, 9 kg dry
Launch date (UTC)
1966-06-24 (60 years ago)
Launch vehicle
Unknown
Launch site
Air Force Western Test Range (AFWTR)
Object type
Payload
Rocket body
Debris
Shape & HBR
Unknown
Radar Cross Section
Large (>1 m²)

Expand to show TLE details & history
Last TLE update: 16 hours ago

TLE from 16 hours ago
0 PAGEOS 1 DEB
1 02256U 66056C   26034.29172199 -.00000002  00000-0 -41167-2 0  9998
2 02256  86.9408 171.1260 0027450 285.2801  74.4972  7.93548872727859
Epoch: 2026-02-03T07:00Z
TLE epoch observation values (Epoch: 2026-02-03T07:00:04.779Z)
Latitude
0.00001°
Longitude
-67.36867°
Altitude
4,233.637 km
Speed
6.132 km/s
True Right ascension
11h 24m 30s
True Declination
0° 00' 00"
Sunlit
Object was in daylight at epoch
Visualization orbit readout
Latitude
Unknown
Longitude
Unknown
Altitude
Unknown
Speed
Unknown
Apparent Right ascension
Unknown
Apparent Declination
Unknown
Sunlit
N/A
Visualization observer readout
Local Sidereal Time
00:33:57
Azimuth
Unknown
Elevation
Unknown
Doppler factor
Unknown
Orbital elements
Apogee altitude
4,266.382 km
Perigee altitude
4,208.104 km
Semi-major axis
10,615.38 km
Eccentricity
0.00275
Inclination
86.9408°
RAAN
171.126°
Arg. of periapsis
285.2801°
True anomaly
74.80059°
Mean anomaly
74.4972°
Eccentric anomaly
74.64887°
Mean motion
1.98445 °/min
Orbital period
181.41 mins
BSTAR
-0.0041167
Loading maneuver chart data...
Computing Atmospheric mass density...

Documentation

Showing up to 5 results
|